Location: Baix
(44.7118°N, 4.7648°E)
Time: 22:26:54
(UTC+00:00)

Vanguard 1 Rocket - Visible Passes

Search period start: 05 December 2020 00:00
Search period end: 15 December 2020 00:00
Orbit: 655 x 4221 km, 34.3° (Epoch: 04 December)

Date Brightness Start Highest point End Pass type
(mag) Time Alt. Az. Time Alt. Az. Time Alt. Az.
05 Dec 10.7 01:05:00 46° ESE 01:05:00 46° ESE 01:16:54 10° E visible
05 Dec 10.2 03:22:16 51° SW 03:27:32 59° SSW 03:43:01 10° ESE visible
05 Dec 10.4 05:39:33 13° W 05:54:44 33° SW 06:05:32 10° SSE visible
05 Dec 11.3 20:54:44 10° S 20:58:01 16° S 20:58:01 16° S visible
05 Dec 11.2 23:57:41 26° E 23:57:41 26° E 00:04:09 10° E visible
06 Dec 10.3 02:14:57 63° S 02:14:57 63° S 02:31:43 10° ESE visible
06 Dec 10.3 04:32:13 30° WSW 04:42:47 46° SSW 04:56:04 10° SE visible
06 Dec 11.2 19:46:40 10° SSE 19:50:52 16° SSE 19:50:52 16° SSE visible
06 Dec 11.5 22:06:32 10° SW 22:50:22 10° E 22:50:32 10° E visible
07 Dec 10.7 01:07:38 46° ESE 01:07:38 46° ESE 01:19:41 10° E visible
07 Dec 10.3 03:24:55 50° SW 03:29:47 56° SSW 03:45:40 10° SE visible
07 Dec 10.6 05:42:12 13° W 05:56:36 28° SW 06:07:25 10° S visible
07 Dec 11.1 20:55:56 10° SSW 21:01:03 21° S 21:01:03 21° S visible
08 Dec 11.2 00:00:21 26° E 00:00:21 26° E 00:06:54 10° E visible
08 Dec 10.3 02:17:37 61° S 02:17:37 61° S 02:34:26 10° ESE visible
08 Dec 10.4 04:34:54 29° WSW 04:44:47 41° SW 04:58:22 10° SSE visible
08 Dec 11.0 19:46:56 10° S 19:53:57 21° SSE 19:53:57 21° SSE visible
08 Dec 11.3 22:08:27 10° SW 22:53:04 10° E 22:53:15 10° E visible
09 Dec 10.7 01:10:21 46° ESE 01:10:21 46° ESE 01:22:25 10° ESE visible
09 Dec 10.4 03:27:38 48° SW 03:31:55 52° SSW 03:48:10 10° SE visible
09 Dec 10.8 05:44:55 12° W 05:58:19 24° SW 06:08:53 10° S visible
09 Dec 11.2 18:41:09 10° SSE 18:46:51 14° SE 18:46:51 14° SE visible
09 Dec 11.0 20:57:32 10° SSW 21:04:09 26° S 21:04:09 26° S visible
10 Dec 11.2 00:03:06 26° ESE 00:03:06 26° ESE 00:09:35 10° E visible
10 Dec 10.4 02:20:23 59° S 02:20:23 59° S 02:37:03 10° ESE visible
10 Dec 10.6 04:37:40 28° WSW 04:46:37 36° SW 05:00:24 10° SSE visible
10 Dec 10.8 19:47:56 10° S 19:57:04 27° SSE 19:57:04 27° SSE visible
10 Dec 11.2 22:10:37 10° SW 22:55:53 10° E 22:55:54 10° E visible
11 Dec 10.7 01:13:10 45° SE 01:13:10 45° SE 01:25:04 10° ESE visible
11 Dec 10.5 03:30:27 46° SW 03:33:54 48° SSW 03:50:29 10° SE visible
11 Dec 11.0 05:47:44 11° W 05:59:54 19° SW 06:09:43 10° SSW visible
11 Dec 11.0 18:40:24 10° SSE 18:50:00 19° SE 18:50:00 19° SE visible
11 Dec 10.8 20:59:26 10° SW 21:07:17 31° SSW 21:07:17 31° SSW visible
12 Dec 11.3 00:05:58 25° ESE 00:05:58 25° ESE 00:12:12 10° E visible
12 Dec 10.4 02:23:15 55° S 02:23:15 55° S 02:39:32 10° SE visible
12 Dec 10.7 04:40:33 26° WSW 04:48:20 31° SW 05:02:06 10° S visible
12 Dec 10.6 19:49:25 10° SSW 20:00:13 33° SSE 20:00:13 33° SSE visible
12 Dec 11.1 22:12:57 10° WSW 22:58:47 - E 22:17:31 23° SW visible
13 Dec 10.8 01:16:05 42° SE 01:16:05 42° SE 01:27:37 10° ESE visible
13 Dec 10.6 03:33:23 42° SW 03:35:46 43° SW 03:52:35 10° SSE visible
13 Dec 11.2 05:51:37 10° W 06:01:23 15° WSW 06:09:26 10° SSW visible
13 Dec 10.8 18:40:56 10° S 18:52:35 24° SE 18:53:08 24° SE visible
13 Dec 10.7 21:01:36 10° SW 21:10:25 36° SSW 21:10:25 36° SSW visible
14 Dec 11.3 00:08:56 24° ESE 00:08:56 24° ESE 00:14:46 10° ESE visible
14 Dec 10.5 02:26:13 50° S 02:26:13 50° S 02:41:51 10° SE visible
14 Dec 10.9 04:43:31 23° WSW 04:49:54 26° SW 05:03:22 10° S visible
14 Dec 11.1 17:36:26 10° SE 17:41:30 12° ESE 17:46:02 11° ESE visible
14 Dec 10.5 19:51:16 10° SSW 20:03:19 39° SSE 20:03:19 39° SSE visible
14 Dec 11.0 22:15:28 10° WSW 23:01:48 - E 22:20:36 25° WSW visible
